[[{"header":{"parameterUnit":"m.s-1","parameterCategory":1,"la1":30.2991,"la2":30.254,"lo1":-89.0895,"lo2":-89.0444,"dy":0.0017,"dx":0.0017,"nx":28,"ny":28,"refTime":"2025-03-16T21:00:00:Z","depth":0,"parameterNumber":2,"parameterNumberName":"U-component_of_WINDS"},"data":[0,0,0,0,0,0,0,0,0,0,0,0,0,0,0,0,0,0,0,0,0,0,0,0,0,0,0,0,0,0,0,0,0,0,0,0,0,0,0,0,0,0,0,0,0,0,0,0,0,0,0,0,0,0,0,0,0,0,0.8182,0.8182,0,0.8128,0.8127,0.8126,0.8084,0.8084,0.8083,0.8083,0.8027,0.8026,0.8025,0,0,0,0,0,0,0,0,0,0,0,0,0,0.8251,0.825,0.8182,0.8182,0.8181,0.8128,0.8127,0.8126,0.8084,0.8084,0.8083,0.8083,0.8027,0.8026,0.8025,0,0,0,0,0,0,0,0,0,0,0,0,0,0.8211,0.825,0.8183,0.8154,0.815,0.8128,0.8127,0.8126,0.8084,0.8084,0.8083,0.8082,0.8028,0.8026,0.8024,0.8026,0,0,0.8019,0.8019,0,0,0,0,0,0,0,0,0.8214,0.8209,0.8158,0.8155,0.8152,0.8112,0.8131,0.8093,0.8084,0.8109,0.8083,0.8082,0.8056,0.8052,0.8043,0.8024,0.8021,0.8019,0.8018,0.8018,0.8017,0,0,0,0,0,0,0,0.8216,0.8211,0.8161,0.8158,0.8154,0.8143,0.8137,0.8123,0.8087,0.8107,0.8104,0.8098,0.8054,0.8045,0.8041,0.8021,0.8019,0.8018,0.8017,0.8016,0.8001,0.8002,0,0,0,0,0,0,0.8224,0.8214,0.8162,0.8159,0.8182,0.8143,0.8136,0.8125,0.8087,0.808,0.8099,0.8096,0.8048,0.8043,0.8039,0.8039,0.8018,0.8016,0.8015,0.8001,0.8001,0.8002,0,0,0,0,0,0,0.8225,0.8219,0.8165,0.8185,0.8178,0.8142,0.8131,0.8125,0.8115,0.808,0.8073,0.8096,0.8047,0.8041,0.803,0.8037,0.8015,0.8014,0.8,0.8001,0.8002,0.8039,0,0,0,0,0,0,0.8227,0.822,0.822,0.8186,0.8177,0.8156,0.8131,0.8124,0.8113,0.8109,0.8076,0.807,0.8046,0.8033,0.8028,0.8034,0.8012,0.7999,0.8,0.8001,0.8037,0.8041,0.8045,0,0,0,0,0,0.823,0.8233,0.8221,0.8215,0.8176,0.8157,0.8152,0.8124,0.8113,0.8113,0.8091,0.8071,0.8037,0.8032,0.8027,0.8032,0.7999,0.8,0.8001,0.8036,0.8041,0.8045,0,0,0,0,0,0,0.8269,0.8228,0.8214,0.8206,0.8185,0.815,0.8149,0.813,0.8113,0.811,0.8077,0.807,0.8062,0.8046,0.8041,0.8032,0.8015,0.8016,0.8043,0.8047,0.8051,0.8055,0.8011,0,0,0,0,0,0.8277,0.8265,0.8229,0.8226,0.8216,0.8185,0.8175,0.8156,0.8133,0.8124,0.8101,0.808,0.8065,0.8055,0.8039,0.8035,0.8027,0.8036,0.804,0.8043,0.8044,0.8041,0.8044,0.8006,0.8006,0.8006,0,0,0.8293,0.8269,0.8263,0.8233,0.8215,0.8203,0.8177,0.8166,0.8157,0.8123,0.811,0.8093,0.8067,0.806,0.8055,0.8046,0.8052,0.8045,0.8047,0.8046,0.8043,0.8046,0.8049,0.8007,0.8007,0.8007,0,0,0.8316,0.8297,0.8292,0.8274,0.8247,0.8226,0.8225,0.8192,0.8179,0.8167,0.8141,0.813,0.8104,0.8087,0.8075,0.8092,0.8073,0.8088,0.8108,0.8105,0.8108,0.8111,0.8117,0.812,0.8089,0.8089,0.8089,0,0.8339,0.832,0.8291,0.8281,0.8269,0.8238,0.8233,0.8217,0.8186,0.8179,0.8169,0.8136,0.8116,0.8105,0.8109,0.81,0.8098,0.8091,0.811,0.8112,0.8114,0.812,0.8123,0.8091,0.8091,0.809,0.809,0,0.835,0.8338,0.8337,0.8308,0.8296,0.8288,0.8259,0.825,0.8232,0.8212,0.82,0.8176,0.8154,0.815,0.8133,0.8136,0.8131,0.8116,0.8099,0.812,0.8125,0.8127,0.8094,0.8093,0.8092,0.8092,0,0,0.8396,0.8352,0.8352,0.8339,0.8307,0.8297,0.8288,0.8267,0.826,0.824,0.8233,0.8212,0.8198,0.8184,0.8165,0.8163,0.8179,0.8148,0.8147,0.8154,0.8182,0.8193,0.8196,0.8166,0.8166,0.8167,0.8184,0,0.8414,0.8397,0.8371,0.8362,0.835,0.8321,0.8314,0.8294,0.8275,0.8263,0.8242,0.8228,0.8211,0.8202,0.8199,0.8177,0.8184,0.8176,0.8159,0.8159,0.8166,0.8199,0.8211,0.8228,0.8186,0.8186,0.8186,0,0.8432,0.8414,0.8405,0.8374,0.8368,0.8362,0.8341,0.833,0.8307,0.8293,0.8279,0.8258,0.8248,0.8232,0.8218,0.8213,0.8205,0.8193,0.8193,0.8191,0.8174,0.8197,0.8233,0.8236,0.8189,0.8189,0.8189,0,0.8467,0.844,0.8431,0.8421,0.8385,0.8381,0.8366,0.8343,0.8332,0.8314,0.8307,0.8288,0.8278,0.8264,0.8238,0.8229,0.8227,0.8209,0.8216,0.8217,0.8217,0.8217,0.8253,0.8212,0.8212,0.8212,0.8212,0,0.849,0.8485,0.8446,0.8441,0.8435,0.8405,0.84,0.8383,0.8362,0.8353,0.8326,0.8318,0.8285,0.8273,0.8253,0.8245,0.8241,0.823,0.8225,0.8232,0.8234,0.8226,0.8224,0.8212,0.8212,0.8212,0.8212,0,0.8527,0.8501,0.8489,0.8456,0.8448,0.8445,0.8417,0.8411,0.8392,0.838,0.8376,0.8345,0.833,0.8303,0.8281,0.8267,0.8263,0.8254,0.8271,0.8268,0.8276,0.8276,0.8308,0.8311,0.8269,0.8269,0.8269,0,0.8543,0.8539,0.8506,0.8498,0.8484,0.8471,0.8461,0.8432,0.8421,0.8395,0.8392,0.8375,0.836,0.8337,0.8313,0.8296,0.8286,0.8299,0.8283,0.8291,0.8287,0.8287,0.8287,0.8302,0.8303,0.8303,0.8304,0,0.8575,0.8562,0.8548,0.8529,0.8516,0.85,0.8482,0.8477,0.8444,0.8435,0.8419,0.8407,0.8384,0.8368,0.8347,0.8332,0.8313,0.8309,0.8309,0.8317,0.8327,0.8322,0.828,0.8308,0.8307,0.8307,0.8307,0.8307,0.8602,0.8597,0.8574,0.8558,0.8542,0.8526,0.8519,0.8498,0.8485,0.8464,0.8448,0.8433,0.8411,0.8381,0.8368,0.8356,0.8347,0.8348,0.8348,0.8349,0.8352,0.8329,0.8352,0.8352,0.8352,0.8352,0.8352,0,0.8633,0.8616,0.8602,0.8578,0.8567,0.855,0.8529,0.8521,0.8508,0.8489,0.8475,0.8457,0.8441,0.8416,0.8398,0.8394,0.8385,0.8391,0.8391,0.8388,0.8361,0.8363,0.8398,0.8398,0.8398,0.8398,0.8398,0.8398,0.8647,0.8638,0.8623,0.8606,0.8589,0.8575,0.8565,0.855,0.8535,0.8516,0.8503,0.8487,0.8465,0.8446,0.8431,0.8424,0.8419,0.8427,0.8418,0.8394,0.8389,0.8385,0.8386,0.8426,0.8426,0.8445,0.8445,0.8445]},{"header":{"parameterUnit":"m.s-1","parameterCategory":1,"la1":30.2991,"la2":30.254,"lo1":-89.0895,"lo2":-89.0444,"dy":0.0017,"dx":0.0017,"nx":28,"ny":28,"refTime":"2025-03-16T21:00:00:Z","depth":0,"parameterNumber":3,"parameterNumberName":"V-component_of_WINDS"},"data":[0,0,0,0,0,0,0,0,0,0,0,0,0,0,0,0,0,0,0,0,0,0,0,0,0,0,0,0,0,0,0,0,0,0,0,0,0,0,0,0,0,0,0,0,0,0,0,0,0,0,0,0,0,0,0,0,0,0,-1.111,-1.1112,0,-1.1308,-1.131,-1.1312,-1.1402,-1.1401,-1.1401,-1.1401,-1.1606,-1.1612,-1.1617,0,0,0,0,0,0,0,0,0,0,0,0,0,-1.0812,-1.0817,-1.111,-1.1112,-1.1115,-1.1307,-1.131,-1.1313,-1.1402,-1.1401,-1.1401,-1.1401,-1.1604,-1.1611,-1.1618,0,0,0,0,0,0,0,0,0,0,0,0,0,-1.0969,-1.0818,-1.1109,-1.1182,-1.1191,-1.1307,-1.131,-1.1313,-1.1402,-1.1401,-1.1401,-1.1401,-1.1602,-1.161,-1.1619,-1.1678,0,0,-1.1645,-1.1648,0,0,0,0,0,0,0,0,-1.096,-1.0979,-1.1169,-1.1177,-1.1187,-1.133,-1.128,-1.1436,-1.1402,-1.1322,-1.1401,-1.1401,-1.1515,-1.153,-1.1568,-1.1687,-1.1696,-1.1645,-1.1651,-1.1654,-1.1657,0,0,0,0,0,0,0,-1.0949,-1.0971,-1.1188,-1.1172,-1.1183,-1.1206,-1.1228,-1.131,-1.1418,-1.1329,-1.1336,-1.1358,-1.1519,-1.156,-1.1574,-1.1699,-1.1645,-1.1653,-1.1658,-1.1661,-1.1878,-1.1879,0,0,0,0,0,0,-1.0925,-1.0962,-1.1182,-1.1194,-1.107,-1.1212,-1.1236,-1.1284,-1.1417,-1.1437,-1.1358,-1.1361,-1.1545,-1.1564,-1.1581,-1.166,-1.1654,-1.1662,-1.1667,-1.1878,-1.1879,-1.1879,0,0,0,0,0,0,-1.0919,-1.0944,-1.1174,-1.108,-1.1111,-1.1217,-1.127,-1.1288,-1.1329,-1.1439,-1.1459,-1.1379,-1.1546,-1.1569,-1.1653,-1.1668,-1.1666,-1.1674,-1.1877,-1.1878,-1.1879,-1.1817,0,0,0,0,0,0,-1.091,-1.0941,-1.0964,-1.108,-1.1116,-1.1241,-1.1271,-1.1292,-1.1343,-1.1349,-1.1464,-1.1483,-1.1547,-1.164,-1.1662,-1.168,-1.168,-1.1876,-1.1877,-1.1879,-1.1818,-1.1816,-1.1814,0,0,0,0,0,-1.0899,-1.0939,-1.0965,-1.0991,-1.1146,-1.1242,-1.1263,-1.1335,-1.1344,-1.1368,-1.1439,-1.1479,-1.1663,-1.1648,-1.1673,-1.1694,-1.1876,-1.1877,-1.1879,-1.1819,-1.1816,-1.1814,0,0,0,0,0,0,-1.0823,-1.0956,-1.0985,-1.1064,-1.1141,-1.1257,-1.129,-1.133,-1.1407,-1.1409,-1.1497,-1.1522,-1.1599,-1.1655,-1.1636,-1.1759,-1.1773,-1.178,-1.1719,-1.1718,-1.1715,-1.17,-1.1687,0,0,0,0,0,-1.0815,-1.0881,-1.0994,-1.1053,-1.109,-1.1183,-1.1227,-1.1277,-1.136,-1.1394,-1.1471,-1.1551,-1.1627,-1.1676,-1.1752,-1.1827,-1.1854,-1.1854,-1.1852,-1.1849,-1.1854,-1.1899,-1.1901,-1.1884,-1.1884,-1.1884,0,0,-1.0801,-1.0881,-1.0918,-1.104,-1.1105,-1.1172,-1.121,-1.1279,-1.1331,-1.1405,-1.1489,-1.1548,-1.1644,-1.1723,-1.1763,-1.1773,-1.1865,-1.1851,-1.1848,-1.1855,-1.1901,-1.1902,-1.1904,-1.1885,-1.1885,-1.1885,0,0,-1.0808,-1.0875,-1.0932,-1.0996,-1.1095,-1.1157,-1.117,-1.128,-1.1322,-1.1408,-1.1465,-1.1528,-1.1656,-1.1723,-1.1773,-1.1806,-1.1846,-1.1828,-1.1817,-1.1859,-1.1861,-1.1862,-1.1875,-1.1878,-1.1832,-1.1832,-1.1832,0,-1.0778,-1.088,-1.0956,-1.1023,-1.1075,-1.1144,-1.1203,-1.1262,-1.1381,-1.1416,-1.1425,-1.1589,-1.1658,-1.1755,-1.1763,-1.1801,-1.182,-1.1815,-1.1854,-1.1857,-1.1859,-1.1872,-1.1876,-1.183,-1.183,-1.183,-1.183,0,-1.0838,-1.0909,-1.0943,-1.1054,-1.1111,-1.1173,-1.1259,-1.1307,-1.1351,-1.1412,-1.1499,-1.1585,-1.168,-1.1706,-1.1751,-1.181,-1.1813,-1.1837,-1.1853,-1.1857,-1.187,-1.1876,-1.1826,-1.1827,-1.1827,-1.1828,0,0,-1.0804,-1.0956,-1.0968,-1.102,-1.1133,-1.119,-1.1255,-1.1348,-1.1387,-1.1467,-1.1525,-1.1633,-1.1656,-1.1713,-1.1765,-1.1803,-1.1824,-1.1823,-1.1826,-1.182,-1.1896,-1.1877,-1.1882,-1.1851,-1.1853,-1.1854,-1.1888,0,-1.0827,-1.0947,-1.1017,-1.1109,-1.1175,-1.1242,-1.13,-1.1376,-1.1435,-1.1501,-1.1567,-1.1642,-1.1666,-1.1701,-1.1742,-1.1813,-1.1841,-1.1811,-1.1907,-1.191,-1.1881,-1.1889,-1.1869,-1.1897,-1.1894,-1.1895,-1.1895,0,-1.0871,-1.0948,-1.1045,-1.1152,-1.1183,-1.1233,-1.1323,-1.1385,-1.1474,-1.1514,-1.1578,-1.163,-1.1704,-1.1713,-1.1816,-1.1795,-1.1838,-1.1879,-1.1882,-1.1894,-1.1903,-1.1901,-1.1908,-1.1912,-1.1904,-1.1904,-1.1903,0,-1.0836,-1.0965,-1.104,-1.1082,-1.1208,-1.1242,-1.1297,-1.1385,-1.1436,-1.1515,-1.1549,-1.1636,-1.1684,-1.1751,-1.1826,-1.1826,-1.1921,-1.1937,-1.1958,-1.1956,-1.1975,-1.1973,-1.1989,-1.2002,-1.2002,-1.2002,-1.2002,0,-1.0856,-1.0913,-1.1026,-1.1073,-1.1139,-1.122,-1.1284,-1.1344,-1.1422,-1.1482,-1.1545,-1.16,-1.1696,-1.1763,-1.1823,-1.1899,-1.1921,-1.1956,-1.1971,-1.1951,-1.1946,-1.1981,-1.1981,-1.2003,-1.2003,-1.2003,-1.2003,0,-1.0829,-1.0907,-1.0993,-1.1105,-1.1135,-1.1179,-1.1276,-1.1324,-1.1386,-1.1461,-1.1484,-1.1582,-1.1664,-1.1746,-1.1857,-1.1897,-1.1973,-1.1993,-1.1943,-1.1951,-1.1967,-1.1965,-1.2007,-1.2017,-1.2022,-1.2021,-1.2021,0,-1.0836,-1.0882,-1.0998,-1.1042,-1.1095,-1.1165,-1.1218,-1.1299,-1.1351,-1.1456,-1.1491,-1.1578,-1.1652,-1.1782,-1.1864,-1.1949,-1.1972,-1.1981,-1.1986,-1.1964,-1.1973,-1.197,-1.1975,-1.1979,-1.1978,-1.1978,-1.1978,0,-1.0841,-1.0877,-1.0949,-1.1035,-1.1095,-1.1167,-1.1241,-1.1274,-1.137,-1.1426,-1.151,-1.1568,-1.1681,-1.1767,-1.1863,-1.192,-1.1965,-1.1975,-1.1985,-1.1965,-1.1934,-1.1951,-1.1937,-1.1974,-1.1975,-1.1975,-1.1975,-1.1975,-1.0832,-1.0876,-1.0965,-1.1043,-1.1107,-1.1175,-1.1226,-1.1294,-1.1366,-1.1464,-1.1508,-1.1593,-1.1682,-1.1814,-1.1871,-1.194,-1.1952,-1.1965,-1.1969,-1.1971,-1.1967,-1.1922,-1.1958,-1.1958,-1.1958,-1.1958,-1.1959,0,-1.0841,-1.0901,-1.0972,-1.1074,-1.1135,-1.1171,-1.1255,-1.1305,-1.1379,-1.1458,-1.1529,-1.1627,-1.1711,-1.1799,-1.1888,-1.1927,-1.195,-1.1947,-1.1946,-1.1958,-1.1951,-1.1934,-1.1927,-1.1927,-1.1927,-1.1927,-1.1927,-1.1927,-1.0853,-1.0928,-1.0975,-1.1084,-1.1145,-1.1228,-1.1273,-1.1337,-1.1399,-1.1505,-1.1575,-1.1632,-1.1715,-1.1811,-1.189,-1.1914,-1.1944,-1.1936,-1.1965,-1.1957,-1.1959,-1.1961,-1.1945,-1.1941,-1.1941,-1.1968,-1.1968,-1.1968]}]]